AS014 Weather Reports


Display with metric or nautical units.
time (UTC)temp
F
wind
direction
speed
MPH
gust
MPH
rain 1hr
in
rain 24hr
in
rain mn
in
humidity
%
barometer
mb
20260505213018 37 23 4.0 11.0 0.00 0.04 0.04 69 1008.8
20260505211517 38 0 3.0 7.0 0.00 0.04 0.04 69 1009.2
20260505210038 39 0 2.0 7.0 0.01 0.04 0.04 69 1009.4
20260505204518 39 0 2.0 6.0 0.01 0.04 0.04 69 1009.7
20260505203017 38 0 3.0 10.0 0.01 0.04 0.04 69 1009.8
20260505201638 38 0 3.0 8.0 0.01 0.04 0.04 69 1010.1
20260505200037 38 0 2.0 6.0 0.00 0.03 0.03 69 1010.2
20260505194518 38 338 3.0 9.0 0.00 0.03 0.03 69 1010.2
20260505193018 38 0 2.0 7.0 0.00 0.03 0.03 69 1010.2
20260505191518 39 0 1.0 4.0 0.00 0.03 0.03 69 1010.4
20260505190017 39 0 1.0 5.0 0.01 0.03 0.03 69 1010.2
20260505184518 38 0 1.0 4.0 0.01 0.03 0.03 69 1009.9
20260505183037 38 0 1.0 4.0 0.01 0.03 0.03 69 1010.2
20260505181518 38 0 2.0 7.0 0.01 0.03 0.03 69 1010.1
20260505180018 38 0 3.0 6.0 0.00 0.02 0.02 70 1010.1
20260505174517 38 0 3.0 7.0 0.00 0.02 0.02 70 1010.2
20260505173017 37 315 3.0 7.0 0.00 0.02 0.02 70 1009.8
20260505171518 37 338 2.0 5.0 0.01 0.02 0.02 70 1009.9
20260505170017 37 338 2.0 5.0 0.01 0.02 0.02 70 1010.1
20260505164538 37 338 2.0 6.0 0.01 0.02 0.02 70 1010.1
20260505163037 37 338 2.0 6.0 0.01 0.02 0.02 70 1010.2
20260505161518 36 0.0 2.0 0.00 0.01 0.01 70 1010.2
20260505153017 36 338 2.0 5.0 0.00 0.01 0.01 70 1010.1
20260505151517 35 338 3.0 5.0 0.00 0.01 0.01 71 1010.1
20260505124517 34 338 5.0 9.0 0.00 0.01 0.01 70 1010.4
20260505123017 35 338 5.0 10.0 0.00 0.01 0.01 70 1009.9
20260505121517 35 338 5.0 11.0 0.00 0.01 0.01 70 1010.4
20260505120017 35 338 4.0 11.0 0.00 0.01 0.01 70 1010.0
20260505114517 36 338 5.0 14.0 0.00 0.01 0.01 69 1010.0
20260505113037 36 338 6.0 13.0 0.00 0.01 0.01 69 1010.3
20260505111517 38 315 6.0 14.0 0.00 0.01 0.01 69 1010.3
20260505101517 40 338 6.0 16.0 0.00 0.01 0.01 68 1010.1
20260505100017 41 315 5.0 15.0 0.00 0.01 0.01 67 1010.3
20260505094517 41 0 5.0 14.0 0.00 0.01 0.01 67 1010.1
20260505093017 42 315 6.0 16.0 0.00 0.01 0.01 67 1011.0
20260505091516 42 315 5.0 13.0 0.00 0.01 0.01 67 1010.7
20260505090016 42 315 6.0 12.0 0.00 0.01 0.01 66 1010.5
20260505084537 43 338 6.0 14.0 0.00 0.01 0.01 66 1010.6
20260505083017 43 338 5.0 13.0 0.00 0.01 0.01 66 1010.0
20260505081518 45 315 5.0 15.0 0.00 0.01 0.01 65 1010.3
20260505080017 47 0.0 5.0 0.00 0.01 0.01 64 1010.5
20260505074517 47 0.0 0.0 0.00 0.01 0.01 64 1010.5
20260505073017 47 0.0 0.0 0.00 0.01 0.01 64 1011.6
20260505071516 47 0.0 0.0 0.01 0.01 0.01 64 1011.6
20260505070017 47 0.0 0.0 0.01 0.01 0.01 64 1011.4
20260505064516 47 0.0 0.0 0.01 0.01 0.01 64 1011.5
20260505063016 47 0.0 2.0 0.01 0.01 0.01 64 1011.5
20260505061516 47 0.0 3.0 0.00 0.00 0.00 64 1011.5
20260505060056 47 0.0 3.0 0.00 0.00 0.00 64 1011.6
20260505054538 46 0.0 3.0 0.00 0.00 0.00 64 1011.6
20260505053019 46 0.0 2.0 0.00 0.00 0.00 64 1010.8
20260505051518 47 0.0 2.0 0.00 0.00 0.00 64 1010.9
20260505041518 48 0.0 3.0 0.00 0.00 0.00 64 1011.5
20260505040018 48 293 1.0 5.0 0.00 0.00 0.00 63 1010.7
20260505034518 48 0.0 3.0 0.00 0.00 0.00 63 1010.8
20260505033018 49 293 1.0 4.0 0.00 0.00 0.00 63 1010.7
20260505031518 49 315 3.0 10.0 0.00 0.00 0.00 63 1010.3
20260505030018 50 315 4.0 10.0 0.00 0.00 0.00 63 1009.1
20260505024518 51 315 4.0 9.0 0.00 0.00 0.00 63 1008.9
20260505023018 52 338 4.0 9.0 0.00 0.00 0.00 62 1008.0
20260505021537 52 315 5.0 11.0 0.00 0.00 0.00 62 1007.9
20260505020018 52 315 6.0 13.0 0.00 0.00 0.00 61 1007.7
20260505014538 56 0 3.0 13.0 0.00 0.00 0.00 58 1008.1
20260505013018 56 0 1.0 5.0 0.00 0.00 0.00 56 1006.7
20260505011517 57 315 1.0 3.0 0.00 0.00 0.00 55 1007.1
20260505010018 58 315 2.0 6.0 0.00 0.00 0.00 53 1006.5
20260505004517 58 0.0 5.0 0.00 0.00 0.00 51 1006.9
20260505003018 58 293 2.0 6.0 0.00 0.00 0.00 49 1006.3
20260505001518 59 315 5.0 10.0 0.00 0.00 0.00 46 1006.4
20260505000018 59 315 5.0 10.0 0.00 0.00 0.00 44 1005.8
20260504234518 60 315 6.0 12.0 0.00 0.00 0.00 44 1006.0
20260504233019 60 315 6.0 14.0 0.00 0.00 0.00 44 1005.5
20260504231518 60 315 5.0 12.0 0.00 0.00 0.00 45 1005.2
20260504230017 61 315 7.0 14.0 0.00 0.00 0.00 43 1005.1
20260504224517 61 293 7.0 13.0 0.00 0.00 0.00 41 1005.5
20260504223017 61 315 6.0 16.0 0.00 0.00 0.00 39 1005.4
20260504221517 62 338 6.0 15.0 0.00 0.00 0.00 39 1005.3
20260504220017 63 315 7.0 19.0 0.00 0.00 0.00 37 1004.9
20260504214517 64 338 8.0 22.0 0.00 0.00 0.00 36 1004.8